Weather History for KIPT - June, 2013

Change the Weather History Date:

Tuesday, June 25, 2013

  Actual Average Record
Temperature  
Mean Temperature 78 °F 71 °F  
Max Temperature 89 °F 82 °F 100 °F (1952)
Min Temperature 66 °F 60 °F 44 °F (1979)
Degree Days  
Heating Degree Days 0 0  
Month to date heating degree days 9 36  
Since 1 June heating degree days 9 36  
Since 1 July heating degree days 5669 5994  
Cooling Degree Days 13 6  
Month to date cooling degree days 117 112  
Year to date cooling degree days 188 155  
Since 1 June cooling degree days 117 112  
Growing Degree Days 28 (Base 50)    
Moisture  
Dew Point 66 °F    
Average Humidity 70    
Maximum Humidity 93    
Minimum Humidity 46    
Precipitation  
Precipitation 0.24 in 0.14 in 1.44 in (1949)
Month to date precipitation 3.10 3.27  
Year to date precipitation 15.67 18.18  
Sea Level Pressure  
Sea Level Pressure 29.93 in    
Wind  
Wind Speed 7 mph (West)    
Max Wind Speed 6 mph    
Max Gust Speed 8 mph    
Visibility 7 miles    
Events Rain , Thunderstorm    
T = Trace of Precipitation, MM = Missing Value Source: NWS Daily Summary

Daily Weather History Graph

Daily Weather History Graph

Search for Another Location

Airport or City:

Trip Planner

Search our weather history database for the weather conditions in past years. The results will help you decide how hot, cold, wet, or windy it might be!

Date:

Astronomy

Jun. 25, 2013 Rise Set
Actual Time 5:36 AM EDT 8:44 PM EDT
Civil Twilight 5:02 AM EDT 9:18 PM EDT
Nautical Twilight 4:18 AM EDT 10:01 PM EDT
Astronomical Twilight 3:27 AM EDT 10:53 PM EDT
Moon 10:26 PM EDT (6/25) 8:15 AM EDT (6/25)
Length of Visible Light 16h 16m
Length of Day
15h 08m
Waning Gibbous, 93% of the Moon is Illuminated
Jun 25
Waning Gibbous
Jun 30
Last Quarter
Jul 8
New
Jul 15
First Quarter
Jul 22
Full

Hourly Weather History & Observations

Time (EDT) Temp. Heat Index Dew Point Humidity Pressure Visibility Wind Dir Wind Speed Gust Speed Precip Events Conditions
12:54 AM 70.0 °F - 64.9 °F 84% 29.99 in 9.0 mi Calm Calm - N/A   Clear
1:54 AM 69.1 °F - 64.9 °F 87% 29.99 in 8.0 mi Calm Calm - N/A   Clear
2:54 AM 68.0 °F - 64.9 °F 90% 29.98 in 7.0 mi Calm Calm - N/A   Clear
3:54 AM 68.0 °F - 64.0 °F 87% 29.96 in 7.0 mi Calm Calm - N/A   Clear
4:54 AM 66.9 °F - 64.0 °F 90% 29.96 in 7.0 mi Calm Calm - N/A   Clear
5:54 AM 66.9 °F - 64.0 °F 90% 29.96 in 4.0 mi Calm Calm - N/A   Mist
5:59 AM 66.2 °F - 64.4 °F 94% 29.97 in 1.8 mi Calm Calm - N/A   Mist
6:12 AM 66.2 °F - 64.4 °F 94% 29.98 in 3.0 mi Calm Calm - N/A   Mist
6:19 AM 66.2 °F - 64.4 °F 94% 29.98 in 3.0 mi Calm Calm - N/A   Mostly Cloudy
6:28 AM 66.2 °F - 64.4 °F 94% 29.98 in 2.0 mi Calm Calm - N/A   Mostly Cloudy
6:51 AM 68.0 °F - 64.4 °F 88% 29.98 in 4.0 mi Calm Calm - N/A   Mostly Cloudy
6:54 AM 68.0 °F - 64.0 °F 87% 29.97 in 4.0 mi Calm Calm - N/A   Mostly Cloudy
7:17 AM 68.0 °F - 64.4 °F 88% 29.98 in 2.0 mi Calm Calm - N/A   Scattered Clouds
7:29 AM 69.8 °F - 64.4 °F 83% 29.98 in 5.0 mi Calm Calm - N/A   Haze
7:54 AM 70.0 °F - 64.9 °F 84% 29.98 in 6.0 mi Calm Calm - N/A   Haze
8:54 AM 73.9 °F - 66.0 °F 76% 29.98 in 8.0 mi Calm Calm - N/A   Clear
9:54 AM 79.0 °F - 66.9 °F 66% 29.96 in 9.0 mi West 4.6 mph - N/A   Clear
10:54 AM 84.9 °F 87.6 °F 66.9 °F 55% 29.95 in 10.0 mi West 12.7 mph - N/A   Clear
11:54 AM 84.9 °F 86.6 °F 64.9 °F 51% 29.93 in 10.0 mi WSW 12.7 mph 19.6 mph N/A   Mostly Cloudy
12:54 PM 87.1 °F 89.2 °F 66.0 °F 49% 29.91 in 10.0 mi WSW 9.2 mph 18.4 mph N/A   Mostly Cloudy
1:54 PM 87.1 °F 88.3 °F 64.0 °F 46% 29.90 in 10.0 mi WSW 16.1 mph - N/A   Mostly Cloudy
2:54 PM 81.0 °F 83.0 °F 66.0 °F 60% 29.91 in 10.0 mi West 13.8 mph - N/A   Mostly Cloudy
3:54 PM 82.0 °F 84.1 °F 66.0 °F 58% 29.90 in 10.0 mi West 13.8 mph - N/A   Clear
4:54 PM 84.0 °F 86.5 °F 66.9 °F 56% 29.87 in 10.0 mi West 8.1 mph - N/A   Clear
5:54 PM 84.9 °F 87.6 °F 66.9 °F 55% 29.83 in 10.0 mi West 9.2 mph - N/A   Clear
6:54 PM 82.9 °F 85.8 °F 68.0 °F 60% 29.83 in 10.0 mi West 8.1 mph - N/A   Clear
7:54 PM 80.1 °F 82.9 °F 69.1 °F 69% 29.83 in 9.0 mi North - - 0.00 in   Partly Cloudy
8:22 PM 80.6 °F 83.9 °F 69.8 °F 70% 29.86 in 9.0 mi Calm Calm - N/A Thunderstorm Partly Cloudy
8:37 PM 78.8 °F - 69.8 °F 74% 29.86 in 9.0 mi West 12.7 mph 20.7 mph N/A   Mostly Cloudy
8:54 PM 78.1 °F - 66.0 °F 66% 29.86 in 10.0 mi WSW 18.4 mph 23.0 mph 0.00 in Thunderstorm Mostly Cloudy
9:54 PM 70.0 °F - 64.9 °F 84% 29.89 in 9.0 mi WNW 10.4 mph - 0.02 in Rain , Thunderstorm Light Rain
10:27 PM 69.8 °F - 64.4 °F 83% 29.89 in - West 4.6 mph - 0.01 in Rain Light Rain
10:54 PM 69.1 °F - 64.9 °F 87% 29.87 in 10.0 mi North - - 0.01 in Rain Light Rain